Wind_Speed
60 67 76 85 98 100 101 95 91 82 82 75 72 68 73 65 65 64 60 56 54 53 51 51 48 51 49 50 52 53 55 53 52 54 52 53 54 56 54 56 58 58 57 56
64 63 72 81 87 101 103 100 96 91 87 81 79 77 73 75 70 69 64 60 59 57 55 53 51 54 54 57 58 58 56 54 55 59 58 56 59 60 58 57 58 59 57 60
64 64 69 80 76 86 100 104 99 99 85 89 88 82 76 75 79 75 70 66 63 62 59 59 58 58 58 61 61 61 58 58 61 63 63 63 62 61 59 59 56 56 58 60
67 69 67 57 76 85 97 106 107 102 98 96 89 84 80 77 85 80 75 71 65 66 64 63 63 61 60 64 64 64 65 65 67 66 66 67 66 64 63 61 60 59 58 61
73 67 56 61 78 79 85 95 102 104 100 99 94 87 85 80 87 84 81 75 72 73 71 69 67 65 62 66 67 67 70 71 71 71 70 71 70 68 67 66 63 60 63 63
70 61 54 55 72 70 80 83 95 104 105 103 97 97 83 83 86 92 91 81 75 79 77 74 71 67 66 69 70 72 74 74 74 74 74 73 72 71 71 68 66 68 69 69
65 59 55 66 56 65 76 74 88 97 102 105 104 98 95 84 88 93 98 86 83 85 82 79 76 72 70 73 75 77 77 77 77 75 75 75 73 73 72 71 71 71 73 74
63 63 58 50 55 63 70 67 74 89 99 104 105 105 94 92 93 97 99 92 90 87 86 83 80 78 76 77 79 80 81 79 78 77 75 76 74 73 73 74 76 75 74 76
63 64 52 49 55 63 65 63 66 76 92 98 104 103 100 97 96 98 98 94 90 85 89 86 83 82 80 81 83 82 82 82 81 78 76 76 76 75 74 77 77 76 78 80
66 56 50 52 55 54 56 54 58 64 79 92 96 99 100 99 99 97 96 92 88 86 85 86 85 84 85 85 85 83 83 83 81 77 75 73 76 77 78 79 76 78 80 82
63 50 51 52 49 48 47 48 47 47 65 76 85 88 93 95 94 94 92 90 88 86 86 84 81 82 82 82 83 83 80 80 78 77 76 79 79 79 80 80 75 81 81 80
64 56 53 47 44 40 41 34 39 45 40 49 68 79 82 89 90 91 91 90 87 86 85 83 81 81 81 79 79 79 79 79 80 79 81 81 80 78 78 77 80 82 84 84
59 63 56 45 41 38 39 43 41 38 40 49 58 64 70 77 84 84 85 84 84 82 82 81 79 79 80 81 81 78 79 80 80 83 82 83 83 85 84 82 82 84 83 84
60 57 54 42 34 29 36 45 37 36 36 32 43 58 61 66 73 76 78 78 77 76 78 78 77 74 74 77 81 82 81 81 80 79 84 82 80 80 78 78 81 79 83 86
60 49 45 39 28 22 27 22 29 35 35 35 36 40 47 59 66 71 71 71 72 73 74 73 75 72 73 76 77 80 74 72 73 74 72 74 75 78 81 82 80 79 87 87
49 42 36 42 34 31 28 29 31 31 29 28 22 21 25 37 47 57 66 68 68 68 68 67 66 70 72 76 74 70 67 69 72 74 73 76 77 78 79 80 82 81 86 83
54 50 42 50 48 47 49 45 43 36 33 29 26 27 28 25 24 32 42 50 56 55 50 54 66 69 65 76 69 64 70 72 68 67 74 79 78 79 79 81 85 85 79 80
52 55 60 59 51 53 46 48 47 44 42 36 34 30 34 33 32 42 44 41 41 45 47 50 55 59 61 63 66 64 65 69 71 73 72 76 80 81 83 85 84 84 83 83
55 59 62 65 66 61 54 56 60 49 47 47 42 41 43 43 43 48 47 47 48 52 56 57 58 59 62 67 69 68 68 70 70 75 80 79 80 83 84 85 86 84 83 85
55 61 59 65 69 70 66 60 63 63 58 55 52 53 52 54 58 61 55 54 60 57 60 65 66 67 69 74 79 80 82 80 79 81 81 80 79 83 85 84 84 87 90 93
59 59 61 69 71 73 67 65 70 71 73 70 58 58 53 60 65 61 64 65 68 70 72 75 78 77 79 82 83 84 86 87 83 79 80 82 81 83 84 86 90 93 94 95
59 56 53 57 70 81 80 79 79 77 74 70 69 70 74 75 74 72 69 77 80 80 79 80 84 87 83 83 85 83 83 84 86 86 89 88 89 89 92 91 94 95 94 87
67 65 62 63 63 68 72 77 80 79 78 74 72 71 75 77 86 81 74 75 75 70 71 75 79 82 85 78 81 82 88 90 90 90 91 91 93 94 95 99 96 93 87 84
72 67 64 65 71 71 71 73 76 80 81 79 80 78 81 84 84 85 88 90 87 85 87 88 84 85 90 91 97 95 90 85 90 94 94 94 99 99 96 90 85 86 83 73
64 62 63 64 73 79 83 79 78 81 85 87 85 85 85 84 85 88 86 87 88 90 91 94 96 97 98 100 107 100 95 98 98 99 100 96 93 93 87 84 83 80 71 60
62 62 64 69 70 73 75 78 81 88 90 87 91 95 98 100 101 103 101 101 103 106 108 107 101 96 91 91 90 96 99 88 86 89 92 87 84 84 83 83 79 72 60 53
65 68 70 72 76 77 79 81 82 83 87 90 93 97 99 99 99 100 101 101 98 99 100 99 90 87 89 93 90 88 89 90 92 90 86 84 83 82 81 80 75 63 57 52
Wind_Direction
242 242 241 229 228 229 231 231 233 232 234 235 236 239 243 239 241 245 248 250 253 256 258 263 267 272 275 278 280 282 283 288 291 292 295 297 300 303 307 308 305 303 301 300
249 247 240 237 229 228 229 230 230 233 234 234 235 236 237 246 242 243 247 249 251 255 259 262 266 270 274 275 276 279 283 286 288 289 290 293 298 302 304 305 303 302 301 304
254 247 239 238 233 230 229 230 229 230 233 235 234 236 240 241 248 247 246 248 250 254 256 260 262 264 268 273 277 279 282 284 284 286 290 292 295 299 302 302 301 301 299 302
250 248 241 238 238 232 228 227 228 228 228 231 234 235 237 237 242 247 252 253 253 254 256 258 261 264 268 271 274 277 279 280 283 285 288 292 295 299 302 302 302 300 301 302
246 250 240 238 240 237 231 229 230 230 229 232 233 234 235 235 240 247 250 252 254 256 258 260 261 263 266 269 273 276 279 281 282 286 290 293 297 301 301 303 304 303 302 302
247 248 246 244 241 239 236 228 229 229 227 230 232 234 233 236 236 242 243 247 251 253 255 258 260 263 265 268 270 273 275 279 282 286 290 294 298 301 301 302 303 301 304 305
246 248 243 242 243 240 239 232 229 229 229 230 231 233 232 233 238 241 246 245 246 250 252 255 259 261 262 265 269 271 274 277 282 286 290 294 296 299 299 300 299 301 304 306
243 244 240 244 242 244 241 234 233 229 229 228 229 231 233 232 235 239 244 245 246 248 252 255 258 260 262 265 268 271 275 279 283 287 290 293 295 295 297 298 299 303 303 303
240 241 239 237 241 243 243 240 236 232 230 230 231 230 231 234 236 239 243 245 248 251 255 258 261 263 266 268 270 273 278 281 284 287 289 291 292 293 293 294 298 300 299 299
244 242 239 239 243 246 246 246 241 236 231 230 231 230 232 234 237 239 244 247 250 251 255 260 263 266 268 270 273 276 278 281 282 285 287 288 289 291 292 295 295 295 296 297
240 234 236 239 240 244 246 250 246 237 232 229 231 230 232 234 237 241 244 247 250 253 255 258 262 265 269 271 273 275 277 279 281 284 285 286 290 291 292 292 292 293 294 296
234 227 237 238 241 242 245 244 239 227 216 223 233 232 231 232 236 239 242 245 248 252 255 257 261 264 266 270 272 274 277 279 282 284 286 288 290 290 290 291 292 293 294 296
222 225 229 236 239 235 231 227 239 239 229 228 231 232 232 234 236 239 243 247 249 252 255 258 261 263 266 269 272 275 278 282 284 285 288 287 288 289 289 291 292 295 295 298
223 228 230 234 236 217 230 230 234 234 238 238 235 232 232 233 234 238 242 245 248 252 254 257 258 262 265 268 272 275 279 283 286 286 288 290 290 291 289 290 293 296 295 298
228 230 228 221 212 190 214 234 232 239 241 243 243 241 237 238 238 238 240 243 248 251 256 260 262 263 266 269 268 278 281 280 281 283 283 283 284 285 288 292 295 295 297 300
211 209 213 204 198 193 200 227 240 231 239 241 235 234 242 239 240 243 243 245 247 251 254 260 263 264 265 267 271 274 274 273 275 280 282 285 287 290 292 292 294 298 301 300
209 215 211 194 194 204 201 214 218 224 233 233 221 248 252 223 233 237 238 241 246 252 255 258 254 257 259 258 267 267 268 274 280 283 289 287 287 290 290 292 297 299 300 300
206 209 212 197 195 199 204 214 210 220 237 229 215 229 234 234 243 234 243 248 249 244 245 249 256 260 262 266 269 270 277 281 285 283 285 287 287 292 295 296 298 300 301 302
207 211 209 203 205 204 209 213 216 217 221 216 234 233 232 245 248 246 247 245 246 250 252 254 266 268 269 271 274 279 283 287 287 288 288 289 290 294 295 296 298 301 301 302
214 209 210 214 212 210 213 216 222 222 220 227 234 242 240 238 241 241 244 244 247 244 249 255 257 261 268 272 274 278 281 283 289 292 290 289 289 290 293 296 296 298 300 303
214 210 215 219 218 214 218 229 232 236 235 239 237 237 243 240 241 244 242 245 248 252 251 255 256 265 269 273 276 276 283 280 286 289 288 286 287 288 290 293 295 300 301 304
218 218 218 221 222 223 226 227 232 235 239 239 244 238 245 252 250 251 255 258 256 258 258 265 265 267 272 276 278 279 280 281 283 287 288 285 287 290 292 294 296 299 302 304
217 220 222 223 226 229 231 232 234 239 238 242 244 245 246 251 251 253 256 260 262 257 258 262 267 268 273 274 277 279 284 286 287 287 287 287 289 293 294 297 298 300 301 304
223 225 229 225 224 229 234 237 239 241 243 244 243 246 248 251 253 255 255 256 256 255 260 266 268 269 272 275 280 283 284 283 285 287 288 288 292 292 295 296 298 300 302 302
225 231 236 235 232 230 228 231 234 238 241 242 243 241 243 244 247 251 252 255 259 261 264 272 272 278 279 279 278 282 284 286 286 287 290 289 291 292 294 296 298 299 300 297
236 236 233 233 239 237 236 236 237 240 241 242 244 246 248 250 251 253 257 260 264 266 269 272 274 275 275 276 276 279 281 284 284 287 289 289 290 292 294 296 297 298 294 290
232 235 237 237 238 236 236 238 242 244 244 245 246 248 250 253 255 258 259 261 265 266 269 272 272 274 277 278 279 281 280 281 285 286 287 290 291 292 293 295 295 291 288 283
Height
10750 10756 10759 10768 10781 10792 10801 10821 10824 10846 10847 10860 10864 10870 10868 10879 10883 10885 10892 10900 10904 10906 10909 10910 10913 10911 10912 10912 10910 10908 10905 10905 10903 10899 10899 10898 10894 10890 10889 10881 10872 10868 10863 10856
10731 10737 10740 10746 10759 10772 10782 10798 10813 10819 10830 10843 10848 10848 10855 10857 10867 10872 10879 10884 10889 10893 10897 10899 10902 10901 10901 10899 10898 10896 10896 10895 10892 10885 10885 10885 10883 10880 10879 10874 10866 10857 10850 10845
10715 10717 10719 10721 10754 10757 10765 10775 10793 10797 10828 10818 10824 10835 10847 10849 10844 10853 10861 10868 10874 10878 10884 10887 10889 10890 10890 10885 10884 10882 10883 10881 10879 10874 10872 10872 10872 10872 10867 10862 10856 10850 10844 10837
10694 10693 10697 10734 10721 10726 10735 10748 10761 10779 10792 10795 10809 10823 10832 10836 10828 10838 10844 10851 10860 10863 10868 10872 10873 10876 10877 10871 10870 10869 10867 10867 10863 10862 10860 10859 10859 10856 10854 10849 10844 10840 10834 10827
10669 10679 10696 10700 10694 10711 10721 10741 10753 10766 10778 10784 10795 10807 10814 10827 10821 10826 10831 10838 10845 10845 10849 10855 10857 10860 10863 10858 10856 10854 10851 10849 10849 10848 10847 10844 10842 10841 10837 10832 10828 10823 10819 10813
10656 10669 10679 10685 10671 10693 10698 10720 10726 10731 10746 10761 10776 10777 10807 10810 10812 10803 10808 10823 10831 10828 10833 10837 10843 10846 10849 10845 10844 10842 10839 10837 10836 10835 10833 10831 10827 10823 10819 10815 10811 10806 10802 10796
10643 10655 10662 10652 10673 10676 10679 10699 10704 10716 10730 10742 10752 10767 10771 10793 10796 10794 10787 10808 10814 10813 10818 10822 10827 10833 10835 10832 10830 10827 10826 10825 10824 10823 10820 10817 10815 10811 10805 10799 10794 10791 10785 10779
10629 10633 10640 10652 10655 10655 10664 10680 10685 10694 10704 10715 10728 10736 10768 10768 10769 10768 10772 10788 10792 10799 10802 10807 10812 10815 10819 10818 10816 10814 10812 10811 10810 10810 10807 10803 10800 10794 10788 10783 10778 10775 10771 10763
10612 10616 10631 10639 10641 10641 10650 10663 10669 10677 10684 10696 10709 10729 10738 10746 10751 10751 10755 10766 10779 10790 10787 10792 10797 10800 10802 10802 10800 10799 10799 10796 10794 10794 10792 10788 10783 10778 10776 10769 10765 10760 10754 10748
10595 10613 10623 10626 10630 10633 10638 10645 10654 10662 10669 10679 10692 10709 10720 10728 10730 10739 10745 10756 10766 10772 10776 10778 10780 10783 10784 10784 10783 10785 10782 10779 10778 10778 10777 10774 10767 10763 10759 10755 10750 10743 10737 10732
10592 10608 10609 10615 10620 10623 10629 10634 10645 10650 10656 10668 10677 10688 10701 10711 10717 10725 10733 10742 10749 10755 10757 10762 10765 10765 10765 10765 10765 10763 10764 10762 10761 10761 10760 10756 10752 10748 10743 10739 10734 10726 10720 10716
10580 10594 10600 10606 10610 10616 10621 10625 10631 10639 10646 10656 10666 10674 10683 10691 10699 10708 10716 10723 10732 10738 10742 10746 10747 10748 10748 10748 10745 10745 10746 10744 10743 10744 10742 10738 10735 10729 10723 10719 10714 10707 10699 10696
10575 10576 10589 10597 10603 10609 10613 10618 10624 10630 10637 10644 10650 10658 10668 10677 10685 10694 10702 10711 10715 10720 10723 10728 10732 10732 10731 10730 10728 10728 10727 10727 10724 10722 10722 10717 10715 10709 10705 10700 10694 10688 10681 10675
10558 10573 10585 10592 10597 10601 10607 10612 10618 10623 10630 10636 10639 10646 10655 10661 10670 10679 10688 10695 10700 10704 10708 10711 10714 10717 10716 10714 10709 10711 10713 10710 10705 10702 10699 10697 10692 10686 10683 10679 10676 10670 10662 10656
10558 10570 10576 10585 10592 10596 10602 10606 10612 10616 10621 10626 10631 10637 10644 10651 10658 10666 10673 10680 10684 10687 10690 10694 10699 10699 10700 10699 10694 10695 10695 10691 10690 10686 10684 10678 10672 10666 10662 10660 10658 10657 10641 10637
10556 10565 10570 10578 10586 10590 10597 10601 10605 10609 10613 10617 10623 10627 10633 10639 10645 10652 10659 10665 10671 10675 10677 10680 10684 10682 10683 10680 10680 10682 10678 10674 10672 10671 10666 10660 10654 10650 10646 10641 10636 10637 10624 10618
10548 10557 10563 10569 10574 10585 10590 10593 10598 10602 10607 10610 10616 10620 10624 10629 10634 10639 10643 10647 10653 10660 10664 10665 10668 10667 10667 10664 10663 10665 10661 10658 10657 10654 10649 10641 10637 10632 10628 10622 10615 10609 10611 10600
10538 10544 10548 10557 10565 10569 10575 10582 10586 10592 10598 10604 10608 10613 10617 10619 10625 10628 10633 10637 10641 10645 10648 10648 10649 10652 10651 10648 10646 10649 10647 10640 10639 10633 10629 10624 10618 10614 10606 10601 10595 10589 10586 10576
10527 10534 10537 10548 10554 10562 10568 10572 10576 10583 10588 10595 10599 10604 10608 10612 10614 10617 10621 10625 10627 10630 10631 10633 10634 10634 10634 10632 10627 10629 10628 10622 10620 10616 10610 10606 10600 10593 10588 10582 10575 10568 10564 10556
10520 10526 10532 10538 10545 10552 10558 10563 10567 10573 10577 10583 10589 10593 10598 10600 10602 10604 10608 10611 10613 10614 10615 10617 10617 10618 10615 10613 10610 10608 10609 10606 10602 10598 10592 10586 10580 10574 10568 10562 10555 10551 10542 10535
10511 10519 10524 10528 10535 10544 10550 10552 10555 10560 10566 10571 10576 10580 10583 10584 10587 10590 10591 10594 10595 10596 10598 10598 10598 10598 10597 10594 10591 10590 10590 10585 10582 10578 10574 10565 10562 10555 10550 10544 10537 10529 10522 10514
10503 10510 10516 10521 10525 10530 10534 10537 10541 10547 10553 10558 10562 10565 10566 10567 10569 10572 10573 10575 10577 10577 10580 10582 10579 10578 10576 10575 10574 10571 10569 10566 10562 10557 10553 10547 10540 10536 10530 10525 10520 10511 10502 10496
10490 10497 10503 10508 10514 10519 10523 10526 10530 10533 10540 10543 10545 10548 10549 10549 10553 10555 10555 10556 10556 10558 10563 10559 10560 10558 10555 10553 10550 10549 10546 10542 10539 10534 10530 10525 10519 10514 10507 10502 10495 10489 10481 10474
10478 10484 10489 10495 10500 10503 10508 10511 10515 10519 10523 10528 10529 10531 10533 10534 10535 10537 10538 10537 10535 10537 10537 10538 10537 10535 10533 10532 10528 10526 10523 10521 10516 10512 10508 10503 10498 10492 10487 10481 10475 10469 10460 10453
10468 10473 10477 10480 10481 10484 10490 10493 10496 10501 10504 10508 10510 10514 10514 10515 10516 10515 10518 10514 10512 10512 10516 10513 10513 10512 10510 10507 10506 10501 10499 10497 10494 10488 10486 10480 10474 10470 10465 10460 10455 10449 10442 10436
10456 10459 10461 10463 10467 10471 10472 10475 10478 10480 10482 10487 10487 10490 10491 10494 10496 10494 10495 10496 10492 10491 10493 10494 10488 10485 10485 10483 10480 10481 10477 10472 10469 10464 10462 10458 10454 10448 10444 10440 10435 10429 10424 10420
10441 10443 10445 10447 10449 10453 10454 10456 10459 10461 10463 10462 10465 10467 10469 10470 10471 10469 10470 10471 10470 10467 10466 10467 10465 10463 10460 10459 10457 10454 10452 10448 10445 10442 10439 10434 10430 10427 10422 10418 10413 10410 10407 10405